GFSNGP_con_mucape_021.txt.gz
CAPE
0 0 0 0 0 0 0 0 0 0 0 0 0 122 81 77 32 23 108 607 479 702 606 846 985 1132 1275 1487 1733 2643 2944 3050 2826 2887 2969 2998 2963 3144 2582 2711 2887 2161 1674 1189
0 0 0 0 0 0 0 0 0 0 0 0 0 152 165 90 145 35 0 670 641 830 676 541 720 942 1162 1452 1645 1831 2693 2825 2814 2654 2855 2838 2979 2971 3292 2860 2939 2827 2387 1889
0 0 0 0 0 0 0 0 0 0 0 0 0 0 212 312 103 20 15 505 529 635 940 601 712 857 1067 1335 1545 1735 1994 2616 2677 2642 2700 2755 2809 2887 3149 3336 3122 3221 2944 2597
0 3 0 0 0 0 0 1 0 0 0 0 0 0 0 0 8 0 36 220 770 989 1445 1539 1018 923 1061 1183 1476 1590 1696 2155 2453 2531 2556 2715 2837 2998 2956 3359 3261 3390 3340 3146
0 0 0 0 0 0 1 0 6 76 17 52 14 0 0 0 0 0 1 17 52 824 1114 1457 1827 1259 1063 1103 1288 1380 1408 1572 2092 2301 2546 2606 2896 2881 3137 3058 3365 3424 3408 3293
0 0 0 0 0 4 266 127 697 488 384 246 90 32 97 631 473 278 9 0 3 26 424 1499 1503 2167 1832 1494 1301 1304 1281 1762 1933 2131 2378 2761 2940 3027 3135 3297 3542 3580 3452 3298
1 0 0 0 0 271 251 198 718 636 606 588 503 525 449 482 343 518 540 54 0 0 270 1378 1651 2349 2150 1989 1750 1734 1836 2072 2391 2725 2808 3120 3142 3286 3621 3700 3681 3632 3508 3436
14 0 0 421 226 297 381 952 973 595 516 479 513 389 286 384 542 362 1090 1001 327 0 1004 1810 1968 2475 2593 2698 2303 2079 3665 3194 4407 4111 4105 4125 3922 3975 3753 3290 3650 3508 3519 2519
78 664 575 947 941 877 1484 1464 1663 1680 1735 1782 1730 1757 1952 2295 2282 2217 2116 3083 3192 3203 3267 3179 2804 2901 3055 3791 3775 3852 3807 4131 4425 4463 4580 4374 4275 3761 3220 3741 3709 2393 2596 2108
297 224 151 371 463 1361 1219 1117 1293 1281 1471 1437 1477 1666 1977 2286 2475 2748 2954 3174 3187 3216 3716 4110 4129 4031 4119 3915 3860 3905 3899 3938 3938 3906 3928 4039 4004 3212 3336 3106 2321 1846 1789 2020
185 414 671 911 1116 855 966 822 558 857 1188 1451 1439 1544 1629 1584 1840 2296 2662 3153 3478 3893 3759 3803 3790 3851 3709 3690 3693 3687 3700 3703 3621 3525 3446 3381 3256 2998 2664 2074 1749 1594 1913 988
208 3 0 289 234 563 532 431 396 697 887 875 1154 1131 1077 1116 1339 1687 2035 1875 2458 3394 3517 3626 3691 3638 3593 3531 3436 3425 3325 2629 2840 3015 2987 2894 2750 2268 1817 1493 1382 1081 881 787
427 46 89 112 106 117 11 10 1 386 604 733 618 795 787 881 1076 1197 1294 1628 1985 2126 2860 3206 3195 3154 3403 3269 2884 2441 2291 2503 2705 2546 2183 2378 1520 1407 1280 1313 853 790 776 755
81 71 3 0 45 10 0 0 0 0 0 211 358 453 591 514 706 550 538 873 1297 1792 2008 2282 2461 2542 2220 2094 2160 2099 2120 2178 2094 1569 1217 1426 1406 1077 701 538 504 503 455 480
14 17 0 0 7 38 2 4 0 0 0 0 6 111 255 194 203 293 577 932 1305 1538 1651 2065 2287 2524 2425 2221 2012 1815 1328 1203 996 897 644 580 638 545 243 238 290 249 198 182
0 13 1 0 0 0 0 1 0 0 0 0 0 0 5 12 0 19 159 418 745 966 1380 1497 1784 1991 1838 1955 2216 2369 1649 1467 1238 1022 995 834 713 472 70 9 13 5 7 2
0 0 19 25 30 9 9 1 0 5 0 0 0 0 0 0 0 0 149 209 441 886 1318 1204 1471 1727 1439 1380 1340 998 1024 784 1562 1078 1101 842 701 453 287 178 11 0 0 0
0 28 29 14 3 3 3 8 15 8 0 1 1 1 3 8 23 0 67 46 58 382 1141 1076 898 848 996 959 960 797 526 648 506 274 182 76 29 78 62 87 55 50 44 25
0 3 3 4 0 0 3 13 12 9 9 0 0 0 1 27 45 103 271 377 210 300 401 585 612 577 733 456 512 195 309 239 97 121 100 114 144 60 38 72 66 71 73 36
0 0 6 25 48 18 23 39 55 50 39 40 32 45 59 121 98 88 123 114 78 216 239 272 393 268 440 413 107 73 72 73 75 43 57 69 56 51 42 47 74 82 56 60
69 63 75 67 39 45 82 57 57 58 98 103 66 64 87 98 113 89 109 80 58 58 92 98 112 90 93 213 78 38 42 45 100 77 69 56 45 59 48 40 33 18 29 34
87 79 49 72 77 53 93 74 96 98 115 140 104 94 95 77 47 13 22 5 30 132 118 59 143 129 89 148 89 79 62 60 64 47 40 26 34 50 24 19 50 51 28 48
27 52 185 171 83 38 79 78 149 173 141 100 41 124 82 81 53 4 7 2 3 6 21 17 12 40 54 86 57 61 50 50 27 31 3 17 8 6 0 25 44 81 71 65
150 75 75 10 20 136 36 75 3 88 107 24 77 24 36 23 48 57 18 6 1 0 1 1 3 0 16 61 27 15 22 18 12 10 6 0 0 4 16 23 39 26 23 60
70 29 8 18 5 5 3 13 11 4 21 24 17 16 13 19 35 76 55 50 5 24 47 6 0 0 0 56 69 43 36 3 0 0 0 1 0 0 0 0 0 0 0 12
8 0 0 0 0 3 10 0 0 0 5 0 3 17 14 3 12 18 26 27 34 30 49 78 6 0 0 0 2 11 8 10 14 6 14 16 15 0 0 0 0 0 0 0
0 0 0 0 0 0 0 0 0 0 0 0 0 0 0 2 1 1 11 22 23 20 13 30 27 13 9 24 37 18 21 20 20 22 15 15 18 11 11 0 0 0 0 0

GFSNGP_con_mucape_024.txt.gz
CAPE
0 0 0 0 0 0 0 0 0 0 0 0 0 0 0 0 0 91 110 61 70 279 341 567 616 694 1046 1622 2151 2310 2432 2474 2259 2183 2425 2657 2435 2119 1926 2137 2115 1960 1493 1398
0 0 0 0 0 0 0 0 0 0 0 0 0 0 0 0 7 37 54 77 27 374 507 504 714 808 894 1443 2306 2429 2586 2630 2629 2536 2401 2441 2642 2581 2317 2064 2442 2195 2012 1717
0 0 0 0 0 0 0 0 0 0 0 0 0 0 0 0 0 0 14 13 67 341 353 589 829 912 913 1317 2104 2526 2627 2752 2727 2703 2686 2650 2608 2695 2797 2590 2217 2637 2721 2670
0 0 0 0 0 0 0 0 0 0 0 0 0 0 0 0 13 1 19 3 433 471 628 783 865 1001 1138 1158 1638 2364 2499 2713 2827 2721 2672 2714 2775 2761 2727 2905 2799 2532 2485 2624
0 0 0 0 0 0 0 0 0 0 0 0 0 0 0 0 0 0 0 0 75 640 634 628 843 888 1058 1284 1504 1799 2193 2509 2716 2699 2592 2659 2693 2723 2732 2831 2981 2906 2880 2838
0 0 0 0 0 0 0 0 153 0 0 0 0 0 6 81 76 0 0 0 19 709 1151 1021 715 817 869 1089 1400 1645 1885 1976 2514 2566 2521 2512 2619 2587 2660 2736 2953 2971 3048 3123
0 0 0 0 0 27 2 22 300 158 30 1 22 54 135 184 75 142 22 215 179 20 414 1055 1251 916 806 883 1039 1481 1689 1820 1959 2476 2478 2472 2499 2641 2666 2751 2847 2965 3027 3195
0 0 0 111 60 5 200 629 358 390 87 39 776 1807 2107 1726 1190 737 345 196 469 306 0 46 942 1466 1171 923 946 1144 1367 1550 1641 2008 2319 2331 2420 2647 2675 2824 2771 2866 2954 2764
0 76 239 301 1085 1055 1212 1270 1088 1140 1063 1268 1598 1897 2244 2528 2653 2839 2765 2778 2652 857 157 2 671 1460 1388 1456 1283 1198 1220 1248 1565 1770 1996 2330 2557 2750 2735 2817 2735 2635 2353 2543
0 166 400 731 1010 1136 1157 1041 1183 1197 1024 1439 1926 2069 2299 2492 2728 2914 3044 3085 3144 3086 2378 2316 1857 1156 1481 1516 1451 1498 1639 1819 2621 2860 3073 2903 2798 2722 2687 2777 2930 2528 2057 2740
0 66 234 702 661 849 790 821 1136 1219 1240 1380 1688 1831 2112 2276 2386 2646 2877 3004 3158 3321 3200 3105 2865 2599 2777 2755 1990 2749 3059 3169 3327 3076 2979 2870 2731 2662 2708 2602 2371 2438 2387 1711
85 11 143 419 376 377 458 459 673 1138 1287 1364 1370 1386 1443 1673 1841 1844 1829 2051 2178 2245 2351 2175 2567 2779 3137 3002 2719 2613 2773 3147 3265 3325 3454 3404 3129 2578 1906 1457 932 1538 1227 1221
26 42 231 191 126 178 284 331 480 570 629 773 887 1139 1161 1200 1239 1358 1401 1444 1339 1148 1176 1038 150 41 1595 3051 2993 2968 2912 3470 3599 2964 2420 1950 1175 730 1031 1270 951 954 996 601
39 25 45 60 8 53 110 146 175 206 387 541 677 745 815 737 668 546 768 830 663 387 442 842 1019 827 1145 1830 1847 1938 2203 2218 1482 727 685 530 714 853 1079 874 904 609 575 634
51 47 38 75 32 17 2 0 1 12 6 1 24 345 535 515 400 477 763 746 697 657 636 694 811 796 958 1020 1203 1293 1390 1568 1390 1331 1246 1019 936 805 796 983 582 483 476 367
36 50 36 27 6 0 0 0 0 0 0 0 0 0 19 127 186 137 296 372 449 529 559 528 492 508 684 782 1061 1139 1166 1135 1017 934 929 910 839 677 504 407 259 228 219 117
26 16 16 0 0 0 0 0 0 0 0 0 0 1 0 0 0 0 0 421 506 434 721 998 930 925 898 1074 1126 907 793 642 519 411 372 439 446 271 102 127 153 44 40 20
0 1 2 0 0 0 0 0 0 0 5 0 0 0 0 2 1 9 0 0 211 514 317 237 418 735 703 479 343 375 653 1126 741 668 518 429 310 57 52 6 1 0 0 0
0 0 0 0 0 0 0 0 12 15 17 2 0 1 0 2 17 10 2 0 25 20 68 65 120 179 176 261 255 218 317 551 531 560 585 807 799 664 356 359 82 9 19 6
0 0 0 0 0 32 0 33 4 5 6 47 16 35 21 1 9 7 0 5 9 8 39 33 4 12 37 25 50 69 59 109 142 129 75 75 71 50 113 267 190 74 82 53
48 63 64 57 61 46 47 37 39 36 65 56 61 43 50 56 60 12 18 7 12 29 30 36 8 3 0 0 1 5 68 89 57 9 18 14 25 37 41 97 109 115 72 52
64 65 61 15 33 46 41 30 91 47 14 51 49 76 40 17 38 31 27 27 36 25 36 104 112 69 34 30 26 75 96 104 93 62 25 31 24 23 24 8 57 64 61 48
11 25 7 9 11 4 20 20 13 8 19 18 3 31 32 17 2 4 2 3 5 13 21 27 4 30 32 50 75 42 35 73 60 47 26 18 17 22 6 7 29 40 51 57
3 3 1 1 2 0 1 10 13 8 11 20 13 4 0 4 34 17 4 0 11 4 0 7 6 0 36 20 43 57 35 25 4 8 4 1 8 11 0 2 23 62 79 93
0 4 13 7 3 0 0 10 9 18 22 8 13 3 27 31 14 2 0 0 0 0 2 0 0 0 0 56 26 9 17 26 23 18 6 1 0 0 0 3 11 13 13 65
0 0 0 0 0 0 1 0 0 0 2 5 12 22 1 1 13 18 15 8 5 4 0 0 4 0 0 0 53 23 14 4 0 3 1 4 2 1 0 0 0 0 0 0
0 0 0 0 0 0 0 0 0 0 0 0 0 0 0 0 1 11 8 13 10 24 20 17 15 35 11 8 6 13 41 28 17 8 14 17 24 31 20 16 3 0 0 0

GFSNGP_con_mucape_030.txt.gz
CAPE
0 0 0 0 0 0 0 0 0 0 0 0 0 0 0 0 0 0 0 0 0 0 0 5 21 36 109 172 371 556 637 725 879 900 932 984 1068 1158 1190 1115 1081 1063 953 1401
0 0 0 0 0 0 0 0 0 0 0 0 0 0 0 0 0 0 0 0 0 0 0 85 185 190 171 340 556 775 789 859 971 1067 1067 1080 1059 1032 1123 1280 1259 1203 1074 1191
0 0 0 0 0 0 0 0 0 0 0 0 0 0 0 0 0 0 0 0 0 0 0 60 222 397 347 471 788 939 955 1024 1164 1236 1308 1353 1365 1271 1141 1171 1313 1287 1274 1099
0 0 0 0 0 0 0 0 0 0 0 0 0 0 0 0 0 0 0 0 0 0 0 0 90 411 442 441 907 1138 1148 1186 1428 1503 1490 1536 1580 1529 1424 1303 1282 1378 1373 1396
0 0 0 0 0 0 0 0 0 0 0 0 0 0 0 0 0 0 0 0 0 0 0 2 139 414 494 437 840 1356 1409 1422 1598 1730 1716 1732 1822 1853 1759 1588 1442 1466 1426 1508
0 0 0 0 0 0 0 0 0 0 0 0 0 0 0 0 0 0 0 0 0 0 0 3 130 278 227 458 922 1294 1727 1746 1802 1797 1714 1682 1810 1990 2053 1985 1835 1685 1730 1662
0 0 0 0 0 5 0 0 0 0 0 0 0 0 0 0 0 0 0 0 0 0 0 0 11 150 330 452 853 1278 1655 1882 1951 1977 1949 1817 1792 1859 1951 2153 2155 1954 1868 1816
0 0 0 0 0 4 0 0 0 0 0 0 0 0 0 0 1 81 748 1435 405 419 281 0 164 420 548 638 795 1064 1586 1821 1962 2118 2202 2159 2162 2125 2098 2180 2296 2352 2208 2004
0 0 0 0 0 6 7 13 24 3 0 0 0 33 641 1386 1868 2123 2344 2184 1848 1758 2029 2162 153 394 684 816 873 901 1074 1645 1973 2142 2369 2395 2393 2248 2213 2332 2434 2426 2332 2343
15 0 0 52 8 54 70 97 295 268 355 629 815 1314 1881 2313 2382 2283 2390 2321 2056 1890 1773 1842 2283 2190 1927 1689 1442 877 776 1091 1393 1968 2228 2457 2393 2321 2277 2381 2444 2443 2461 2330
7 0 118 57 10 78 215 351 606 795 1163 1215 1550 1783 1893 1883 1836 1704 1547 1427 1244 1224 1270 997 1089 887 872 1395 1909 1934 1420 1047 951 1293 1641 2248 2463 2406 2367 2369 2364 2446 2428 2435
0 0 99 76 66 186 415 670 902 1221 1391 1400 1483 1446 1355 1329 1286 1189 1134 1205 1070 912 869 575 315 119 65 372 801 1255 1985 1831 1319 1177 1346 1974 2258 2253 2314 2294 2332 2342 2328 2365
7 88 172 88 142 332 559 682 744 843 993 1285 1281 1333 1141 931 637 478 460 417 261 267 359 555 827 658 370 201 208 107 210 1517 2146 1547 1191 1393 1742 1984 1877 2253 2387 2425 2271 2028
97 180 326 179 181 516 403 450 383 473 581 655 702 717 531 471 413 432 371 259 231 175 93 280 310 688 493 502 86 35 61 270 765 1436 1809 1583 1462 1580 1478 1412 2101 2207 2040 1010
53 269 172 195 149 296 343 317 215 155 161 218 270 383 403 446 559 575 521 447 326 321 362 540 558 662 726 428 463 234 24 55 328 521 823 992 1087 1383 1455 1323 1352 737 526 298
176 169 243 191 186 87 50 265 57 33 60 17 42 189 348 455 566 698 547 344 273 283 317 335 293 405 565 631 315 340 255 170 134 190 222 376 429 736 755 676 637 503 7 2
70 217 244 154 45 27 38 0 0 3 78 0 1 0 0 47 272 309 278 326 264 197 271 143 73 117 336 462 398 233 167 90 23 0 0 3 4 0 2 53 0 0 0 0
8 7 37 8 0 0 0 1 1 6 25 19 0 0 0 0 0 0 4 67 20 3 0 1 14 40 69 393 388 360 175 161 71 0 3 3 0 0 0 3 17 7 262 358
0 0 34 29 1 0 0 2 0 48 4 0 0 0 0 0 0 0 0 0 0 0 0 0 0 0 0 23 275 273 320 271 281 198 134 104 147 46 79 174 243 346 402 320
0 3 7 32 34 8 10 7 20 28 19 0 0 0 0 0 0 0 0 0 0 0 0 0 0 0 0 11 8 26 109 123 68 71 135 174 220 278 227 214 332 300 365 284
0 0 1 0 6 0 7 0 4 10 32 3 0 1 0 1 1 1 1 0 0 0 0 8 4 0 0 0 0 12 55 24 32 46 105 73 41 15 3 21 34 61 112 105
0 0 0 0 30 13 33 42 27 9 8 10 0 0 0 1 1 0 0 0 0 2 10 2 1 12 21 25 22 17 10 9 41 15 20 14 40 60 60 48 57 41 41 22
17 9 14 14 6 9 3 2 16 7 23 37 53 52 9 3 0 0 0 0 0 0 0 0 2 17 57 54 47 68 65 47 39 33 36 46 41 53 46 52 41 6 29 43
3 8 3 0 13 11 1 7 10 8 2 20 25 28 34 18 14 1 2 3 2 0 0 0 0 0 3 6 22 55 43 51 48 57 69 61 78 45 28 16 26 40 49 83
0 0 0 0 0 0 0 0 0 0 0 0 4 0 0 0 8 16 20 10 7 4 1 0 0 0 0 6 1 1 13 0 14 47 35 37 42 28 15 48 69 65 76 71
0 0 0 0 0 0 0 0 0 0 0 0 0 0 0 0 4 4 1 1 1 0 0 0 0 0 0 0 7 0 1 1 4 10 1 6 7 9 10 2 1 0 0 0
0 0 0 0 0 0 0 0 0 0 0 0 0 0 0 0 0 0 0 0 1 0 0 0 0 0 0 0 0 2 0 4 0 8 9 0 0 1 9 1 1 2 3 1

GFSNGP_con_mucape_033.txt.gz
CAPE
0 0 0 0 0 0 0 0 0 0 0 0 0 0 0 0 0 0 0 0 26 142 822 977 1061 1173 1072 1067 1346 1406 1696 1784 2076 2293 2390 2352 2402 2421 2406 2447 2426 2480 2515 2508
0 0 0 0 0 0 0 0 0 0 0 0 0 0 0 0 0 0 0 0 0 152 389 495 959 1147 1084 1189 1267 1597 1795 1766 2051 2405 2508 2438 2444 2449 2507 2490 2523 2523 2465 2491
0 0 0 0 0 0 0 0 0 0 0 0 0 0 0 0 0 0 0 0 0 0 79 554 580 1057 1088 1238 1324 1607 1861 1935 2050 2302 2499 2534 2536 2598 2615 2600 2584 2568 2399 2441
0 0 0 0 0 0 0 0 0 0 0 0 0 0 0 0 0 0 0 0 0 0 0 459 298 222 977 1182 1545 1711 1931 2069 2107 2212 2370 2402 2474 2514 2672 2701 2762 2758 2558 2456
0 0 0 0 0 0 0 0 0 0 0 0 0 0 0 0 0 0 0 0 0 0 0 225 484 841 1133 1312 1702 1913 2099 2189 2237 2026 2059 2440 2497 2535 2541 2567 2670 2809 2788 2778
0 0 0 0 0 0 0 0 0 0 0 0 0 0 0 0 0 0 0 0 0 0 0 0 293 408 1184 1208 1718 2114 2262 2285 2348 2407 2464 2603 2696 2727 2765 2729 2675 2588 2821 2957
0 0 0 0 0 7 3 0 0 0 0 0 0 0 0 0 0 0 0 0 0 0 140 426 422 681 1435 1619 1996 2118 2001 2178 2576 2830 2791 2771 2976 3018 3064 2828 2783 2711 2878 2983
0 0 0 0 0 0 17 1 0 0 0 0 0 0 76 0 0 1 428 201 0 0 22 149 727 1237 2023 2345 2119 2093 2419 2742 3206 3212 2602 2580 3125 2911 3093 2987 3434 3185 3082 2873
0 0 0 0 0 0 2 0 0 10 0 0 0 0 122 0 1099 1712 2212 2132 2267 2280 1588 993 1140 1614 1889 1789 1870 2257 2565 2998 3023 3134 3194 3418 3263 2955 2879 3391 3244 3134 3112 2794
0 0 0 0 0 0 62 56 64 39 21 3 38 273 114 1296 2542 2875 2179 2344 2437 2300 2001 1546 1589 1936 2167 2220 1989 2276 2572 3005 3172 3132 3175 3465 3141 2510 2912 2997 3122 3229 3307 2915
0 0 0 0 0 0 0 0 3 42 96 378 576 868 1336 1976 1896 1668 1482 1285 955 612 505 496 518 442 505 1716 2645 2354 2123 2183 2467 2735 2835 3361 3588 3480 3202 3435 3166 3272 3307 3010
0 0 56 0 0 40 130 22 29 30 882 1027 687 948 1280 1379 1352 1032 854 938 970 815 586 311 100 29 120 297 1100 2678 2669 2025 1655 1845 2234 2661 3096 2694 2757 2740 2705 2571 2601 2840
0 0 0 0 0 11 103 106 55 381 1187 1681 1796 1633 1434 1187 877 614 515 652 788 1094 843 483 789 671 204 516 676 777 1028 1321 1354 1158 1692 1641 1665 1897 2137 2268 2403 2441 2328 2312
0 0 8 0 0 169 119 99 63 515 837 1051 990 919 735 578 312 151 349 458 492 685 492 692 757 566 727 621 637 568 562 267 936 901 1424 1485 1431 1267 1329 1571 1914 2140 2230 2118
0 0 1 3 330 268 76 107 188 450 392 364 338 268 214 205 135 91 127 137 125 104 149 177 359 384 543 219 226 189 189 381 535 546 456 604 788 905 869 1096 1395 1131 1625 1881
0 0 0 36 103 61 82 153 191 331 346 347 401 411 288 189 112 71 56 59 49 37 86 165 172 276 359 532 251 257 441 120 423 427 278 452 386 394 614 808 900 808 415 181
112 109 104 60 2 31 0 13 76 136 160 156 120 210 238 228 164 84 56 37 34 12 30 135 204 301 449 489 819 513 257 155 15 420 300 139 67 0 39 100 281 79 1 14
94 47 0 0 16 52 125 1 76 150 125 75 103 103 44 31 4 0 45 55 0 1 1 1 4 17 264 412 673 490 567 296 174 80 63 10 1 12 7 3 0 0 0 12
19 0 0 2 0 13 11 11 30 6 6 17 44 23 3 0 0 19 48 36 0 0 0 0 0 0 0 18 342 571 627 263 117 139 70 0 6 3 9 0 4 19 0 0
0 0 7 0 0 0 0 2 0 0 13 0 0 0 0 2 8 15 0 0 0 0 0 0 0 0 0 1 11 107 427 463 356 153 120 73 42 10 0 1 45 90 80 124
0 0 0 0 0 0 2 0 0 0 0 0 0 0 0 0 0 0 0 0 0 0 0 0 0 0 0 3 7 18 71 55 111 192 79 41 21 40 9 2 10 28 69 134
0 0 0 0 0 0 17 14 12 12 0 0 0 1 1 0 0 0 0 0 0 2 3 0 0 4 18 22 9 0 12 48 40 40 28 37 10 10 11 21 10 2 6 15
1 0 0 3 22 30 11 9 18 36 43 33 7 10 3 0 0 0 0 0 0 0 0 1 4 0 12 47 48 30 27 27 35 37 17 12 2 1 4 8 29 29 21 32
0 0 0 0 0 0 0 0 0 0 2 0 0 0 0 0 0 0 0 0 0 0 0 0 0 0 0 1 7 48 34 7 15 31 45 48 16 15 3 0 1 6 10 13
0 0 0 0 0 0 0 0 0 0 0 0 0 0 0 0 0 0 0 0 0 0 0 0 0 0 0 0 0 3 4 16 18 29 33 49 32 25 24 26 49 45 29 9
0 0 0 0 0 0 0 0 0 0 0 0 0 0 0 0 0 0 0 0 0 0 0 0 0 0 0 0 0 0 0 3 0 3 24 23 23 19 19 15 6 0 0 6
0 0 0 0 0 0 0 0 0 0 0 0 0 0 0 0 0 0 0 0 0 0 0 0 0 0 0 0 0 0 0 0 0 0 0 2 3 2 9 12 12 6 2 0

GFSNGP_con_mucape_036.txt.gz
CAPE
0 0 0 0 0 0 0 0 0 0 0 0 0 0 0 0 0 0 0 0 0 46 239 785 1057 1511 2167 1633 1791 1754 2553 2074 2920 3338 3573 3566 3603 3831 3849 3990 3917 4033 4079 4075
0 0 0 0 0 0 0 0 0 0 0 0 0 0 0 0 0 0 0 0 0 0 377 1030 1259 1500 1513 2212 1901 1910 2802 2835 3057 3580 3804 3786 3821 3947 4116 4075 4023 4122 4080 4136
0 0 0 0 0 0 0 0 0 0 0 0 0 0 0 0 0 0 0 0 0 0 41 274 754 1263 1475 2190 1845 2442 2748 3169 3412 3840 3946 4072 4067 4156 4165 4118 4112 4183 4141 4188
0 0 0 0 0 0 0 0 0 0 0 0 0 0 0 0 0 0 0 0 0 0 0 0 86 16 604 1180 2779 2846 3115 3269 3522 3714 3959 4106 4202 4133 4185 4206 4106 4166 4177 4237
0 0 0 0 0 0 0 0 0 0 0 0 0 0 0 0 0 0 0 0 0 0 0 0 0 21 129 852 1693 2231 3184 3410 3595 3663 3345 3581 4190 4235 3907 3630 3882 3796 3602 4297
0 0 0 0 0 0 0 0 0 0 0 0 1 0 0 0 0 0 0 0 0 0 0 0 73 151 528 808 1505 2763 3130 2948 3472 3605 3758 3803 4166 4267 4126 3648 3559 3220 3372 4215
0 0 0 0 0 7 0 46 4 0 0 0 78 121 252 317 142 31 1 0 0 0 0 22 173 475 738 1030 1599 2161 2287 2358 3217 3801 4035 4031 4360 4279 4053 3934 3508 3975 4075 4145
0 0 0 0 0 0 0 0 0 0 0 0 0 0 1 158 452 449 230 0 18 218 52 291 1264 1433 1647 3068 2270 2482 2594 2594 3577 3937 3053 2919 4330 4429 4322 4074 4169 4242 3970 3428
0 0 0 0 0 0 0 0 0 0 0 0 0 0 0 83 682 858 224 197 921 341 638 1132 1959 1815 2224 3179 2795 2891 2993 3615 3406 3413 3388 3808 4137 4000 3523 3983 3246 3577 3525 3164
0 0 0 0 0 0 0 0 0 0 0 0 0 0 0 487 1352 770 1247 2063 2202 2321 1818 2288 2588 2583 2716 3077 2927 2929 3167 3371 3551 3720 3604 3512 3378 3501 3373 3342 3335 3104 3243 2916
0 0 21 11 1 0 0 0 0 0 0 0 0 0 1 1220 1659 1856 2592 2720 2789 2747 2410 2473 2668 2910 2983 2957 2846 3119 3297 3334 3457 3385 3512 3721 3822 3415 3345 3672 3028 3293 3434 3526
0 26 48 43 29 15 0 0 0 0 0 0 0 30 497 1569 1961 2382 2153 1667 1429 1236 1070 825 938 1223 1484 2295 3095 2869 2831 2683 2556 2582 3035 3201 3343 3592 2888 2782 2789 2747 2598 2368
0 19 38 36 18 8 14 1 0 0 6 7 31 210 920 1272 1572 1764 1928 1914 1330 1128 1313 1585 1370 1388 1306 1535 1575 1720 1866 2224 2233 1494 1782 2060 2637 2939 3112 2674 2636 2691 2781 2736
0 0 0 0 24 7 5 0 4 0 15 58 54 162 708 807 825 1160 1166 1261 1286 945 676 599 608 839 1071 1223 1087 1234 750 193 1059 1152 1320 1469 1687 1601 2168 1929 1761 2188 1483 2425
1 0 0 0 31 41 8 13 94 82 25 2 76 281 1004 1124 1033 813 509 507 523 618 781 837 772 958 1105 545 1054 1117 1068 918 485 657 723 509 589 864 739 949 958 878 938 1120
0 0 0 0 22 4 0 135 125 25 55 66 156 344 828 753 707 392 133 0 0 0 22 370 680 861 873 986 1035 949 636 98 275 529 588 287 369 165 7 178 333 507 606 929
20 0 0 18 0 5 53 105 21 19 8 79 30 90 409 428 269 118 12 0 0 0 0 0 19 803 904 837 686 641 601 408 194 629 488 57 80 161 148 19 97 313 571 426
39 29 48 71 51 17 67 23 16 0 4 18 9 7 117 63 8 0 0 0 0 0 0 0 0 55 244 747 733 727 614 665 462 333 266 100 67 46 31 54 14 11 17 79
24 0 0 0 8 13 46 0 0 0 1 2 1 0 24 2 0 0 0 0 0 0 0 0 0 0 4 62 514 681 668 673 717 531 243 17 91 93 26 3 3 0 0 0
0 0 0 2 0 0 0 28 0 0 1 0 0 0 0 0 0 0 0 0 0 0 0 0 0 0 0 13 12 509 756 674 529 225 152 277 176 10 0 2 7 9 0 5
0 0 0 0 0 0 0 0 0 0 0 0 1 0 0 0 0 0 0 0 0 0 0 0 2 0 0 0 8 146 152 125 110 183 263 231 161 73 74 63 7 40 22 42
0 0 0 13 10 16 15 39 0 0 0 0 0 0 0 0 1 0 0 0 0 0 0 0 0 0 0 0 1 5 13 21 11 20 15 31 36 109 106 77 76 56 63 85
0 0 0 0 0 0 1 3 0 4 15 5 2 0 0 0 0 0 0 0 0 0 0 0 0 0 0 3 6 3 5 14 4 0 1 1 9 2 2 7 9 14 4 7
0 0 0 0 0 0 0 0 0 0 0 7 1 0 0 0 0 0 0 0 0 0 0 0 0 0 0 0 12 10 23 15 20 34 3 13 0 0 11 0 2 3 3 3
0 0 0 0 0 0 0 0 0 0 0 0 0 0 0 0 0 0 0 0 0 0 0 0 0 0 0 0 0 0 0 35 29 21 24 29 7 18 12 13 9 1 4 2
0 0 0 0 0 0 0 0 0 0 0 0 0 0 0 0 0 0 0 0 0 0 0 0 0 0 0 0 0 0 0 0 0 0 0 0 12 4 7 12 9 0 0 0
0 0 0 1 1 0 0 0 0 0 0 0 0 0 0 0 0 0 0 0 0 0 0 0 0 0 0 0 0 0 0 0 0 0 0 0 6 7 3 4 5 7 0 0